User: anonymous   Login
Location: Unspecified
(0.0000°N, 0.0000°E)
Time: 18:27:43
(UTC+01:00)
Language:

ATLAS V CENTAUR R/B - Orbit

View from above orbital plane
View from above orbital plane
View from above satellite
View from above satellite

Ground track
Ground track

The orbit data is extracted from the following two-line orbital elements,

1 27500U 02038B   18021.94906487 +.00016271 +00000-0 +14953-2 0  9997
2 27500 018.0417 298.1582 6753824 177.0545 191.3119 02.99623084132482
Epoch (UTC): 21 January 2018 22:46:39
Eccentricity: 0.6753824
inclination: 18.0417°
perigee height: 219 km
apogee height: 27673 km
right ascension of ascending node: 298.1582°
argument of perigee: 177.0545°
revolutions per day: 2.99623084
mean anomaly at epoch: 191.3119°
orbit number at epoch: 13248

The dashed part of the orbit path shows where the satellite is in the earth's shadow,  

DLR